Location: Chefe Valiua
(16.5342°S, 37.2214°E)
Time: 01:35:41
(UTC+00:00)

NATO 3D Rocket - Pass Details

Date: 19 January 2021
Orbit: 670 x 2296 km, 21.5° (Epoch: 07 March)

Event Time Altitude Azimuth Distance (km) Brightness Sun altitude
Rises 16:39:31 0° 264° (W) 3,020 8.3 -7.2°
Reaches altitude 10° 16:41:58 10° 272° (W) 2,088 7.0 -7.7°
Maximum altitude 16:46:21 39° 341° (NNW) 1,040 4.2 -8.7°
Enters shadow 16:51:07 11° 49° (NE) 2,294 5.4 -9.7°
